Time,TemperatureF,DewpointF,PressureIn,WindDirection,WindDirectionDegrees,WindSpeedMPH,WindSpeedGustMPH,Humidity,HourlyPrecipIn,Conditions,Clouds,dailyrainin,SoftwareType,DateUTC
2013-02-01 00:00:00,16.5,4.1,29.89,North,353,9.6,9.6,57,0.00,,---,0.00,VWS V14.01,2013-02-01 05:00:00,
2013-02-01 00:03:00,16.5,4.4,29.89,North,353,9.6,9.6,58,0.00,,---,0.00,VWS V14.01,2013-02-01 05:03:00,
2013-02-01 00:04:00,16.5,4.4,29.89,North,353,9.6,9.6,58,0.00,,---,0.00,VWS V14.01,2013-02-01 05:04:00,
2013-02-01 00:09:00,16.3,4.3,29.89,North,353,9.6,9.6,58,0.00,,---,0.00,VWS V14.01,2013-02-01 05:09:00,
2013-02-01 00:14:00,16.3,4.3,29.89,North,353,9.6,9.6,58,0.00,,---,0.00,VWS V14.01,2013-02-01 05:14:00,
2013-02-01 00:19:00,16.2,3.7,29.89,North,353,9.6,9.6,57,0.00,,---,0.00,VWS V14.01,2013-02-01 05:19:00,
2013-02-01 00:24:00,16.2,3.7,29.89,North,353,9.6,9.6,57,0.00,,---,0.00,VWS V14.01,2013-02-01 05:24:00,
2013-02-01 00:29:00,16.2,3.3,29.89,North,353,9.6,9.6,56,0.00,,---,0.00,VWS V14.01,2013-02-01 05:29:00,
2013-02-01 00:34:00,16.2,3.3,29.89,North,353,9.6,9.6,56,0.00,,---,0.00,VWS V14.01,2013-02-01 05:34:00,
2013-02-01 00:39:00,16.2,3.7,29.89,North,353,9.6,9.6,57,0.00,,---,0.00,VWS V14.01,2013-02-01 05:39:00,
2013-02-01 00:44:00,16.0,3.5,29.89,North,353,9.6,9.6,57,0.00,,---,0.00,VWS V14.01,2013-02-01 05:44:00,
2013-02-01 00:49:00,16.0,3.1,29.89,North,353,9.6,9.6,56,0.00,,---,0.00,VWS V14.01,2013-02-01 05:49:00,
2013-02-01 00:54:00,16.0,3.1,29.89,North,353,9.6,9.6,56,0.00,,---,0.00,VWS V14.01,2013-02-01 05:54:00,
2013-02-01 01:00:00,16.0,3.5,29.89,North,353,9.6,9.6,57,0.00,,---,0.00,VWS V14.01,2013-02-01 06:00:00,
2013-02-01 01:05:00,15.8,3.8,29.89,North,353,9.6,9.6,58,0.00,,---,0.00,VWS V14.01,2013-02-01 06:05:00,
2013-02-01 01:10:00,15.8,3.8,29.89,North,353,9.6,9.6,58,0.00,,---,0.00,VWS V14.01,2013-02-01 06:10:00,
2013-02-01 01:15:00,15.8,4.2,29.92,North,353,9.6,9.6,59,0.00,,---,0.00,VWS V14.01,2013-02-01 06:15:00,
2013-02-01 01:20:00,15.6,4.0,29.92,North,353,9.6,9.6,59,0.00,,---,0.00,VWS V14.01,2013-02-01 06:20:00,
2013-02-01 01:25:00,15.4,3.8,29.92,North,353,9.6,9.6,59,0.00,,---,0.00,VWS V14.01,2013-02-01 06:25:00,
2013-02-01 01:30:00,15.4,4.2,29.92,North,353,9.6,9.6,60,0.00,,---,0.00,VWS V14.01,2013-02-01 06:30:00,
2013-02-01 01:35:00,15.4,4.2,29.92,North,353,9.6,9.6,60,0.00,,---,0.00,VWS V14.01,2013-02-01 06:35:00,
2013-02-01 01:40:00,15.6,4.0,29.92,North,353,9.6,9.6,59,0.00,,---,0.00,VWS V14.01,2013-02-01 06:40:00,
2013-02-01 01:45:00,15.6,4.0,29.92,North,353,9.6,9.6,59,0.00,,---,0.00,VWS V14.01,2013-02-01 06:45:00,
2013-02-01 01:50:00,15.6,4.4,29.92,North,353,9.6,9.6,60,0.00,,---,0.00,VWS V14.01,2013-02-01 06:50:00,
2013-02-01 01:55:00,15.6,4.4,29.92,North,353,9.6,9.6,60,0.00,,---,0.00,VWS V14.01,2013-02-01 06:55:00,
2013-02-01 02:00:00,15.8,4.9,29.92,North,353,9.6,9.6,62,0.00,,---,0.00,VWS V14.01,2013-02-01 07:00:00,
2013-02-01 02:05:00,16.0,5.1,29.92,North,353,9.6,9.6,62,0.00,,---,0.00,VWS V14.01,2013-02-01 07:05:00,
2013-02-01 02:10:00,16.0,5.1,29.92,North,353,9.6,9.6,62,0.00,,---,0.00,VWS V14.01,2013-02-01 07:10:00,
2013-02-01 02:15:00,16.0,5.1,29.95,North,353,9.6,9.6,62,0.00,,---,0.00,VWS V14.01,2013-02-01 07:15:00,
2013-02-01 02:20:00,16.0,5.1,29.95,North,353,9.6,9.6,62,0.00,,---,0.00,VWS V14.01,2013-02-01 07:20:00,
2013-02-01 02:25:00,16.0,4.7,29.95,North,353,9.6,9.6,60,0.00,,---,0.00,VWS V14.01,2013-02-01 07:25:00,
2013-02-01 02:30:00,16.2,4.5,29.95,North,353,9.6,9.6,59,0.00,,---,0.00,VWS V14.01,2013-02-01 07:30:00,
2013-02-01 02:36:00,16.2,4.9,29.95,North,353,9.6,9.6,60,0.00,,---,0.00,VWS V14.01,2013-02-01 07:36:00,
2013-02-01 02:41:00,16.0,4.7,29.95,North,353,9.6,9.6,60,0.00,,---,0.00,VWS V14.01,2013-02-01 07:41:00,
2013-02-01 02:46:00,16.0,4.3,29.95,North,353,9.6,9.6,59,0.00,,---,0.00,VWS V14.01,2013-02-01 07:46:00,
2013-02-01 02:51:00,16.0,4.3,29.95,North,353,9.6,9.6,59,0.00,,---,0.00,VWS V14.01,2013-02-01 07:51:00,
2013-02-01 02:56:00,16.2,4.1,29.95,North,353,9.6,9.6,58,0.00,,---,0.00,VWS V14.01,2013-02-01 07:56:00,
2013-02-01 03:01:00,16.2,3.7,29.95,North,353,9.6,9.6,57,0.00,,---,0.00,VWS V14.01,2013-02-01 08:01:00,
2013-02-01 03:06:00,16.2,3.3,29.95,North,353,9.6,9.6,56,0.00,,---,0.00,VWS V14.01,2013-02-01 08:06:00,
2013-02-01 03:11:00,16.2,3.3,29.95,North,353,9.6,9.6,56,0.00,,---,0.00,VWS V14.01,2013-02-01 08:11:00,
2013-02-01 03:16:00,16.2,3.7,29.95,North,353,9.6,9.6,57,0.00,,---,0.00,VWS V14.01,2013-02-01 08:16:00,
2013-02-01 03:21:00,16.0,3.5,29.95,North,353,9.6,9.6,57,0.00,,---,0.00,VWS V14.01,2013-02-01 08:21:00,
2013-02-01 03:26:00,16.0,3.5,29.95,North,353,9.6,9.6,57,0.00,,---,0.00,VWS V14.01,2013-02-01 08:26:00,
2013-02-01 03:31:00,16.0,3.5,29.98,North,353,9.6,9.6,57,0.00,,---,0.00,VWS V14.01,2013-02-01 08:31:00,
2013-02-01 03:36:00,16.0,3.9,29.98,North,353,9.6,9.6,58,0.00,,---,0.00,VWS V14.01,2013-02-01 08:36:00,
2013-02-01 03:41:00,16.2,4.5,29.98,North,353,9.6,9.6,59,0.00,,---,0.00,VWS V14.01,2013-02-01 08:41:00,
2013-02-01 03:46:00,16.2,4.5,29.98,North,353,9.6,9.6,59,0.00,,---,0.00,VWS V14.01,2013-02-01 08:46:00,
2013-02-01 03:51:00,16.0,4.3,29.98,North,353,9.6,9.6,59,0.00,,---,0.00,VWS V14.01,2013-02-01 08:51:00,
2013-02-01 03:56:00,16.0,4.3,29.98,North,353,9.6,9.6,59,0.00,,---,0.00,VWS V14.01,2013-02-01 08:56:00,
2013-02-01 04:01:00,16.2,4.5,29.98,North,353,9.6,9.6,59,0.00,,---,0.00,VWS V14.01,2013-02-01 09:01:00,
2013-02-01 04:06:00,16.0,4.7,29.98,North,353,9.6,9.6,60,0.00,,---,0.00,VWS V14.01,2013-02-01 09:06:00,
2013-02-01 04:11:00,16.0,4.3,29.98,North,353,9.6,9.6,59,0.00,,---,0.00,VWS V14.01,2013-02-01 09:11:00,
2013-02-01 04:16:00,16.0,4.3,29.98,North,353,9.6,9.6,59,0.00,,---,0.00,VWS V14.01,2013-02-01 09:16:00,
2013-02-01 04:21:00,16.0,4.3,29.98,North,353,9.6,9.6,59,0.00,,---,0.00,VWS V14.01,2013-02-01 09:21:00,
2013-02-01 04:26:00,16.2,4.5,29.98,North,353,9.6,9.6,59,0.00,,---,0.00,VWS V14.01,2013-02-01 09:26:00,
2013-02-01 04:31:00,16.2,4.5,30.01,North,353,9.6,9.6,59,0.00,,---,0.00,VWS V14.01,2013-02-01 09:31:00,
2013-02-01 04:36:00,16.2,4.5,30.01,North,353,9.6,9.6,59,0.00,,---,0.00,VWS V14.01,2013-02-01 09:36:00,
2013-02-01 04:41:00,16.2,4.5,30.01,North,353,9.6,9.6,59,0.00,,---,0.00,VWS V14.01,2013-02-01 09:41:00,
2013-02-01 04:46:00,16.0,4.3,30.01,North,353,9.6,9.6,59,0.00,,---,0.00,VWS V14.01,2013-02-01 09:46:00,
2013-02-01 04:51:00,15.8,4.2,30.01,North,353,9.6,9.6,59,0.00,,---,0.00,VWS V14.01,2013-02-01 09:51:00,
2013-02-01 04:56:00,15.8,4.6,30.01,North,353,9.6,9.6,60,0.00,,---,0.00,VWS V14.01,2013-02-01 09:56:00,
2013-02-01 05:01:00,15.8,4.6,30.01,North,353,9.6,9.6,60,0.00,,---,0.00,VWS V14.01,2013-02-01 10:01:00,
2013-02-01 05:06:00,15.4,4.6,30.01,North,353,9.6,9.6,62,0.00,,---,0.00,VWS V14.01,2013-02-01 10:06:00,
2013-02-01 05:12:00,15.3,4.1,30.01,North,353,9.6,9.6,60,0.00,,---,0.00,VWS V14.01,2013-02-01 10:12:00,
2013-02-01 05:17:00,15.1,3.9,30.01,North,353,9.6,9.6,60,0.00,,---,0.00,VWS V14.01,2013-02-01 10:17:00,
2013-02-01 05:22:00,14.7,3.5,30.01,North,353,9.6,9.6,60,0.00,,---,0.00,VWS V14.01,2013-02-01 10:22:00,
2013-02-01 05:27:00,14.7,3.5,30.01,North,353,9.6,9.6,60,0.00,,---,0.00,VWS V14.01,2013-02-01 10:27:00,
2013-02-01 05:32:00,14.5,3.4,30.04,North,353,9.6,9.6,60,0.00,,---,0.00,VWS V14.01,2013-02-01 10:32:00,
2013-02-01 05:37:00,14.5,3.0,30.04,North,353,9.6,9.6,59,0.00,,---,0.00,VWS V14.01,2013-02-01 10:37:00,
2013-02-01 05:42:00,14.5,3.4,30.04,North,353,9.6,9.6,60,0.00,,---,0.00,VWS V14.01,2013-02-01 10:42:00,
2013-02-01 05:47:00,14.4,3.2,30.01,North,353,9.6,9.6,60,0.00,,---,0.00,VWS V14.01,2013-02-01 10:47:00,
2013-02-01 05:52:00,14.4,3.2,30.01,North,353,9.6,9.6,60,0.00,,---,0.00,VWS V14.01,2013-02-01 10:52:00,
2013-02-01 05:57:00,14.4,2.8,30.01,North,353,9.6,9.6,59,0.00,,---,0.00,VWS V14.01,2013-02-01 10:57:00,
2013-02-01 06:02:00,14.2,3.0,30.04,North,353,9.6,9.6,60,0.00,,---,0.00,VWS V14.01,2013-02-01 11:02:00,
2013-02-01 06:07:00,13.8,2.7,30.04,North,353,9.6,9.6,60,0.00,,---,0.00,VWS V14.01,2013-02-01 11:07:00,
2013-02-01 06:12:00,13.6,2.5,30.04,North,353,9.6,9.6,60,0.00,,---,0.00,VWS V14.01,2013-02-01 11:12:00,
2013-02-01 06:17:00,13.6,2.5,30.04,North,353,9.6,9.6,60,0.00,,---,0.00,VWS V14.01,2013-02-01 11:17:00,
2013-02-01 06:22:00,13.5,2.3,30.04,North,353,9.6,9.6,60,0.00,,---,0.00,VWS V14.01,2013-02-01 11:22:00,
2013-02-01 06:27:00,13.5,2.3,30.04,North,353,9.6,9.6,60,0.00,,---,0.00,VWS V14.01,2013-02-01 11:27:00,
2013-02-01 06:32:00,13.6,2.5,30.07,North,353,9.6,9.6,60,0.00,,---,0.00,VWS V14.01,2013-02-01 11:32:00,
2013-02-01 06:37:00,13.8,2.7,30.07,North,353,9.6,9.6,60,0.00,,---,0.00,VWS V14.01,2013-02-01 11:37:00,
2013-02-01 06:42:00,13.8,2.7,30.07,North,353,9.6,9.6,60,0.00,,---,0.00,VWS V14.01,2013-02-01 11:42:00,
2013-02-01 06:47:00,13.6,2.5,30.07,North,353,9.6,9.6,60,0.00,,---,0.00,VWS V14.01,2013-02-01 11:47:00,
2013-02-01 06:52:00,13.6,2.5,30.07,North,353,9.6,9.6,60,0.00,,---,0.00,VWS V14.01,2013-02-01 11:52:00,
2013-02-01 06:57:00,13.6,2.5,30.07,North,353,9.6,9.6,60,0.00,,---,0.00,VWS V14.01,2013-02-01 11:57:00,
2013-02-01 07:02:00,13.8,2.7,30.07,North,353,9.6,9.6,60,0.00,,---,0.00,VWS V14.01,2013-02-01 12:02:00,
2013-02-01 07:07:00,13.8,2.7,30.07,North,353,9.6,9.6,60,0.00,,---,0.00,VWS V14.01,2013-02-01 12:07:00,
2013-02-01 07:12:00,13.8,2.7,30.07,North,353,9.6,9.6,60,0.00,,---,0.00,VWS V14.01,2013-02-01 12:12:00,
2013-02-01 07:17:00,13.8,2.7,30.10,North,353,9.6,9.6,60,0.00,,---,0.00,VWS V14.01,2013-02-01 12:17:00,
2013-02-01 07:23:00,13.6,2.5,30.10,North,353,9.6,9.6,60,0.00,,---,0.00,VWS V14.01,2013-02-01 12:23:00,
2013-02-01 07:28:00,13.6,2.5,30.10,North,353,9.6,9.6,60,0.00,,---,0.00,VWS V14.01,2013-02-01 12:28:00,
2013-02-01 07:33:00,13.6,2.5,30.07,North,353,9.6,9.6,60,0.00,,---,0.00,VWS V14.01,2013-02-01 12:33:00,
2013-02-01 07:38:00,13.6,2.5,30.07,North,353,9.6,9.6,60,0.00,,---,0.00,VWS V14.01,2013-02-01 12:38:00,
2013-02-01 07:43:00,13.6,2.5,30.07,North,353,9.6,9.6,60,0.00,,---,0.00,VWS V14.01,2013-02-01 12:43:00,
2013-02-01 07:48:00,13.6,2.5,30.10,North,353,9.6,9.6,60,0.00,,---,0.00,VWS V14.01,2013-02-01 12:48:00,
2013-02-01 07:53:00,13.6,2.5,30.10,North,353,9.6,9.6,60,0.00,,---,0.00,VWS V14.01,2013-02-01 12:53:00,
2013-02-01 07:58:00,13.6,2.5,30.10,North,353,9.6,9.6,60,0.00,,---,0.00,VWS V14.01,2013-02-01 12:58:00,
2013-02-01 08:03:00,13.5,2.3,30.13,North,353,9.6,9.6,60,0.00,,---,0.00,VWS V14.01,2013-02-01 13:03:00,
2013-02-01 08:08:00,13.3,2.2,30.13,North,353,9.6,9.6,60,0.00,,---,0.00,VWS V14.01,2013-02-01 13:08:00,
2013-02-01 08:13:00,13.3,2.2,30.13,North,353,9.6,9.6,60,0.00,,---,0.00,VWS V14.01,2013-02-01 13:13:00,
2013-02-01 08:18:00,13.5,2.3,30.13,North,353,9.6,9.6,60,0.00,,---,0.00,VWS V14.01,2013-02-01 13:18:00,
2013-02-01 08:23:00,13.5,2.3,30.13,North,353,9.6,9.6,60,0.00,,---,0.00,VWS V14.01,2013-02-01 13:23:00,
2013-02-01 08:28:00,13.5,2.3,30.13,North,353,9.6,9.6,60,0.00,,---,0.00,VWS V14.01,2013-02-01 13:28:00,
2013-02-01 08:33:00,13.5,2.3,30.13,North,353,9.6,9.6,60,0.00,,---,0.00,VWS V14.01,2013-02-01 13:33:00,
2013-02-01 08:38:00,13.5,2.3,30.13,North,353,9.6,9.6,60,0.00,,---,0.00,VWS V14.01,2013-02-01 13:38:00,
2013-02-01 08:43:00,13.5,2.3,30.13,North,353,9.6,9.6,60,0.00,,---,0.00,VWS V14.01,2013-02-01 13:43:00,
2013-02-01 08:48:00,13.6,2.5,30.13,North,353,9.6,9.6,60,0.00,,---,0.00,VWS V14.01,2013-02-01 13:48:00,
2013-02-01 08:53:00,13.8,2.7,30.13,North,353,9.6,9.6,60,0.00,,---,0.00,VWS V14.01,2013-02-01 13:53:00,
2013-02-01 08:58:00,14.2,0.2,30.13,North,353,9.6,9.6,53,0.00,,---,0.00,VWS V14.01,2013-02-01 13:58:00,
2013-02-01 09:03:00,14.4,0.3,30.13,North,353,9.6,9.6,53,0.00,,---,0.00,VWS V14.01,2013-02-01 14:03:00,
2013-02-01 09:08:00,14.7,-0.2,30.13,North,353,9.6,9.6,51,0.00,,---,0.00,VWS V14.01,2013-02-01 14:08:00,
2013-02-01 09:13:00,15.1,-0.3,30.13,North,353,9.6,9.6,50,0.00,,---,0.00,VWS V14.01,2013-02-01 14:13:00,
2013-02-01 09:18:00,15.4,-0.5,30.16,North,353,9.6,9.6,49,0.00,,---,0.00,VWS V14.01,2013-02-01 14:18:00,
2013-02-01 09:23:00,15.6,-0.3,30.16,North,353,9.6,9.6,49,0.00,,---,0.00,VWS V14.01,2013-02-01 14:23:00,
2013-02-01 09:28:00,16.3,0.4,30.16,North,353,9.6,9.6,49,0.00,,---,0.00,VWS V14.01,2013-02-01 14:28:00,
2013-02-01 09:33:00,16.5,0.1,30.16,North,353,9.6,9.6,48,0.00,,---,0.00,VWS V14.01,2013-02-01 14:33:00,
2013-02-01 09:38:00,16.7,0.2,30.16,North,353,9.6,9.6,48,0.00,,---,0.00,VWS V14.01,2013-02-01 14:38:00,
2013-02-01 09:43:00,16.7,0.2,30.16,North,353,9.6,9.6,48,0.00,,---,0.00,VWS V14.01,2013-02-01 14:43:00,
2013-02-01 09:48:00,16.5,0.1,30.16,North,353,9.6,9.6,48,0.00,,---,0.00,VWS V14.01,2013-02-01 14:48:00,
2013-02-01 09:53:00,17.1,0.6,30.16,North,353,9.6,9.6,48,0.00,,---,0.00,VWS V14.01,2013-02-01 14:53:00,
2013-02-01 09:58:00,16.9,-0.1,30.16,North,353,9.6,9.6,46,0.00,,---,0.00,VWS V14.01,2013-02-01 14:58:00,
2013-02-01 10:03:00,16.5,0.1,30.19,North,353,9.6,9.6,48,0.00,,---,0.00,VWS V14.01,2013-02-01 15:03:00,
2013-02-01 10:09:00,16.5,-0.4,30.19,North,353,9.6,9.6,46,0.00,,---,0.00,VWS V14.01,2013-02-01 15:09:00,
2013-02-01 10:14:00,16.7,0.2,30.19,North,353,9.6,9.6,48,0.00,,---,0.00,VWS V14.01,2013-02-01 15:14:00,
2013-02-01 10:19:00,17.2,0.2,30.19,North,353,9.6,9.6,46,0.00,,---,0.00,VWS V14.01,2013-02-01 15:19:00,
2013-02-01 10:24:00,17.8,0.7,30.19,North,353,9.6,9.6,46,0.00,,---,0.00,VWS V14.01,2013-02-01 15:24:00,
2013-02-01 10:29:00,18.0,0.9,30.19,North,353,9.6,9.6,46,0.00,,---,0.00,VWS V14.01,2013-02-01 15:29:00,
2013-02-01 10:34:00,18.0,0.9,30.19,North,353,9.6,9.6,46,0.00,,---,0.00,VWS V14.01,2013-02-01 15:34:00,
2013-02-01 10:39:00,18.3,1.2,30.19,North,353,9.6,9.6,46,0.00,,---,0.00,VWS V14.01,2013-02-01 15:39:00,
2013-02-01 10:44:00,18.3,1.2,30.19,North,353,9.6,9.6,46,0.00,,---,0.00,VWS V14.01,2013-02-01 15:44:00,
2013-02-01 10:49:00,18.5,1.4,30.19,North,353,9.6,9.6,46,0.00,,---,0.00,VWS V14.01,2013-02-01 15:49:00,
2013-02-01 10:54:00,19.0,1.9,30.19,North,353,9.6,9.6,46,0.00,,---,0.00,VWS V14.01,2013-02-01 15:54:00,
2013-02-01 10:59:00,19.0,1.4,30.19,North,353,9.6,9.6,45,0.00,,---,0.00,VWS V14.01,2013-02-01 15:59:00,
2013-02-01 11:04:00,18.1,0.6,30.19,North,353,9.6,9.6,45,0.00,,---,0.00,VWS V14.01,2013-02-01 16:04:00,
2013-02-01 11:09:00,19.4,2.2,30.19,North,353,9.6,9.6,46,0.00,,---,0.00,VWS V14.01,2013-02-01 16:09:00,
2013-02-01 11:14:00,19.4,0.1,30.19,North,353,9.6,9.6,42,0.00,,---,0.00,VWS V14.01,2013-02-01 16:14:00,
2013-02-01 11:19:00,20.1,1.3,30.19,North,353,9.6,9.6,43,0.00,,---,0.00,VWS V14.01,2013-02-01 16:19:00,
2013-02-01 11:24:00,19.9,0.6,30.19,North,353,9.6,9.6,42,0.00,,---,0.00,VWS V14.01,2013-02-01 16:24:00,
2013-02-01 11:29:00,19.9,1.2,30.19,North,353,9.6,9.6,43,0.00,,---,0.00,VWS V14.01,2013-02-01 16:29:00,
2013-02-01 11:34:00,19.4,-0.4,30.19,North,353,9.6,9.6,41,0.00,,---,0.00,VWS V14.01,2013-02-01 16:34:00,
2013-02-01 11:39:00,20.1,1.3,30.19,North,353,9.6,9.6,43,0.00,,---,0.00,VWS V14.01,2013-02-01 16:39:00,
2013-02-01 11:44:00,19.9,0.6,30.19,North,353,9.6,9.6,42,0.00,,---,0.00,VWS V14.01,2013-02-01 16:44:00,
2013-02-01 11:49:00,20.5,0.0,30.19,North,353,9.6,9.6,40,0.00,,---,0.00,VWS V14.01,2013-02-01 16:49:00,
2013-02-01 11:54:00,20.7,1.3,30.19,North,353,9.6,9.6,42,0.00,,---,0.00,VWS V14.01,2013-02-01 16:54:00,
2013-02-01 11:59:00,20.8,2.0,30.19,North,353,9.6,9.6,43,0.00,,---,0.00,VWS V14.01,2013-02-01 16:59:00,
2013-02-01 12:04:00,21.2,0.1,30.22,North,353,9.6,9.6,39,0.00,,---,0.00,VWS V14.01,2013-02-01 17:04:00,
2013-02-01 12:09:00,20.3,-0.2,30.22,North,353,9.6,9.6,40,0.00,,---,0.00,VWS V14.01,2013-02-01 17:09:00,
2013-02-01 12:14:00,20.5,1.1,30.22,North,353,9.6,9.6,42,0.00,,---,0.00,VWS V14.01,2013-02-01 17:14:00,
2013-02-01 12:19:00,20.8,2.0,30.22,North,353,9.6,9.6,43,0.00,,---,0.00,VWS V14.01,2013-02-01 17:19:00,
2013-02-01 12:24:00,21.2,0.6,30.22,North,353,9.6,9.6,40,0.00,,---,0.00,VWS V14.01,2013-02-01 17:24:00,
2013-02-01 12:29:00,21.2,2.3,30.22,North,353,9.6,9.6,43,0.00,,---,0.00,VWS V14.01,2013-02-01 17:29:00,
2013-02-01 12:34:00,21.4,0.2,30.22,North,353,9.6,9.6,39,0.00,,---,0.00,VWS V14.01,2013-02-01 17:34:00,
2013-02-01 12:39:00,21.9,1.9,30.22,North,353,9.6,9.6,41,0.00,,---,0.00,VWS V14.01,2013-02-01 17:39:00,
2013-02-01 12:44:00,20.7,0.2,30.22,North,353,9.6,9.6,40,0.00,,---,0.00,VWS V14.01,2013-02-01 17:44:00,
2013-02-01 12:49:00,19.8,-0.1,30.22,North,353,9.6,9.6,41,0.00,,---,0.00,VWS V14.01,2013-02-01 17:49:00,
2013-02-01 12:54:00,19.8,0.4,30.22,North,353,9.6,9.6,42,0.00,,---,0.00,VWS V14.01,2013-02-01 17:54:00,
2013-02-01 12:59:00,19.2,0.0,30.22,North,353,9.6,9.6,42,0.00,,---,0.00,VWS V14.01,2013-02-01 17:59:00,
2013-02-01 13:05:00,19.8,-0.1,30.22,North,353,9.6,9.6,41,0.00,,---,0.00,VWS V14.01,2013-02-01 18:05:00,
2013-02-01 13:10:00,19.2,-0.6,30.22,North,353,9.6,9.6,41,0.00,,---,0.00,VWS V14.01,2013-02-01 18:10:00,
2013-02-01 13:15:00,19.0,-0.2,30.22,North,353,9.6,9.6,42,0.00,,---,0.00,VWS V14.01,2013-02-01 18:15:00,
2013-02-01 13:20:00,19.0,0.3,30.22,North,353,9.6,9.6,43,0.00,,---,0.00,VWS V14.01,2013-02-01 18:20:00,
2013-02-01 13:25:00,18.7,-0.5,30.22,North,353,9.6,9.6,42,0.00,,---,0.00,VWS V14.01,2013-02-01 18:25:00,
2013-02-01 13:30:00,18.5,-1.2,30.22,North,353,9.6,9.6,41,0.00,,---,0.00,VWS V14.01,2013-02-01 18:30:00,
2013-02-01 13:35:00,18.5,-1.2,30.22,North,353,9.6,9.6,41,0.00,,---,0.00,VWS V14.01,2013-02-01 18:35:00,
2013-02-01 13:40:00,19.0,-0.8,30.22,North,353,9.6,9.6,41,0.00,,---,0.00,VWS V14.01,2013-02-01 18:40:00,
2013-02-01 13:45:00,19.8,-0.7,30.22,North,353,9.6,9.6,40,0.00,,---,0.00,VWS V14.01,2013-02-01 18:45:00,
2013-02-01 13:50:00,20.1,-0.3,30.22,North,353,9.6,9.6,40,0.00,,---,0.00,VWS V14.01,2013-02-01 18:50:00,
2013-02-01 13:55:00,20.8,0.3,30.22,North,353,9.6,9.6,40,0.00,,---,0.00,VWS V14.01,2013-02-01 18:55:00,
2013-02-01 14:05:00,22.1,0.3,30.22,North,353,9.6,9.6,38,0.00,,---,0.00,VWS V14.01,2013-02-01 19:05:00,
2013-02-01 14:10:00,21.9,0.1,30.22,North,353,9.6,9.6,38,0.00,,---,0.00,VWS V14.01,2013-02-01 19:10:00,
2013-02-01 14:15:00,21.2,-0.5,30.22,North,353,9.6,9.6,38,0.00,,---,0.00,VWS V14.01,2013-02-01 19:15:00,
2013-02-01 14:20:00,20.3,-1.4,30.22,North,353,9.6,9.6,38,0.00,,---,0.00,VWS V14.01,2013-02-01 19:20:00,
2013-02-01 14:25:00,19.9,-2.3,30.22,North,353,9.6,9.6,37,0.00,,---,0.00,VWS V14.01,2013-02-01 19:25:00,
2013-02-01 14:30:00,19.4,-2.2,30.22,North,353,9.6,9.6,38,0.00,,---,0.00,VWS V14.01,2013-02-01 19:30:00,
2013-02-01 14:35:00,19.0,-1.9,30.22,North,353,9.6,9.6,39,0.00,,---,0.00,VWS V14.01,2013-02-01 19:35:00,
2013-02-01 14:40:00,18.5,-0.7,30.22,North,353,9.6,9.6,42,0.00,,---,0.00,VWS V14.01,2013-02-01 19:40:00,
2013-02-01 14:45:00,18.0,-0.6,30.22,North,353,9.6,9.6,43,0.00,,---,0.00,VWS V14.01,2013-02-01 19:45:00,
2013-02-01 14:50:00,17.8,-1.4,30.22,North,353,9.6,9.6,42,0.00,,---,0.00,VWS V14.01,2013-02-01 19:50:00,
2013-02-01 14:55:00,18.5,-0.7,30.22,North,353,9.6,9.6,42,0.00,,---,0.00,VWS V14.01,2013-02-01 19:55:00,
2013-02-01 15:00:00,18.5,-1.2,30.22,North,353,9.6,9.6,41,0.00,,---,0.00,VWS V14.01,2013-02-01 20:00:00,
2013-02-01 15:05:00,18.0,-2.9,30.22,North,353,9.6,9.6,39,0.00,,---,0.00,VWS V14.01,2013-02-01 20:05:00,
2013-02-01 15:10:00,18.0,-2.3,30.22,North,353,9.6,9.6,40,0.00,,---,0.00,VWS V14.01,2013-02-01 20:10:00,
2013-02-01 15:15:00,18.1,-2.7,30.22,North,353,9.6,9.6,39,0.00,,---,0.00,VWS V14.01,2013-02-01 20:15:00,
2013-02-01 15:20:00,17.8,-2.5,30.22,North,353,9.6,9.6,40,0.00,,---,0.00,VWS V14.01,2013-02-01 20:20:00,
2013-02-01 15:25:00,17.8,-3.0,30.22,North,353,9.6,9.6,39,0.00,,---,0.00,VWS V14.01,2013-02-01 20:25:00,
2013-02-01 15:30:00,17.6,-3.2,30.22,North,353,9.6,9.6,39,0.00,,---,0.00,VWS V14.01,2013-02-01 20:30:00,
2013-02-01 15:35:00,17.8,-2.5,30.22,North,353,9.6,9.6,40,0.00,,---,0.00,VWS V14.01,2013-02-01 20:35:00,
2013-02-01 15:40:00,18.1,-2.7,30.22,North,353,9.6,9.6,39,0.00,,---,0.00,VWS V14.01,2013-02-01 20:40:00,
2013-02-01 15:45:00,18.0,-2.9,30.22,North,353,9.6,9.6,39,0.00,,---,0.00,VWS V14.01,2013-02-01 20:45:00,
2013-02-01 15:50:00,17.6,-2.1,30.22,North,353,9.6,9.6,41,0.00,,---,0.00,VWS V14.01,2013-02-01 20:50:00,
2013-02-01 15:55:00,17.4,-2.2,30.22,North,353,9.6,9.6,41,0.00,,---,0.00,VWS V14.01,2013-02-01 20:55:00,
2013-02-01 16:00:00,17.4,-2.2,30.22,North,353,9.6,9.6,41,0.00,,---,0.00,VWS V14.01,2013-02-01 21:00:00,
2013-02-01 16:05:00,17.2,-3.0,30.22,North,353,9.6,9.6,40,0.00,,---,0.00,VWS V14.01,2013-02-01 21:05:00,
2013-02-01 16:10:00,17.4,-2.2,30.22,North,353,9.6,9.6,41,0.00,,---,0.00,VWS V14.01,2013-02-01 21:10:00,
2013-02-01 16:15:00,17.1,-3.1,30.22,North,353,9.6,9.6,40,0.00,,---,0.00,VWS V14.01,2013-02-01 21:15:00,
2013-02-01 16:20:00,17.1,-3.1,30.22,North,353,9.6,9.6,40,0.00,,---,0.00,VWS V14.01,2013-02-01 21:20:00,
2013-02-01 16:25:00,16.9,-3.8,30.22,North,353,9.6,9.6,39,0.00,,---,0.00,VWS V14.01,2013-02-01 21:25:00,
2013-02-01 16:30:00,16.9,-2.7,30.22,North,353,9.6,9.6,41,0.00,,---,0.00,VWS V14.01,2013-02-01 21:30:00,
2013-02-01 16:36:00,16.9,-3.3,30.22,North,353,9.6,9.6,40,0.00,,---,0.00,VWS V14.01,2013-02-01 21:36:00,
2013-02-01 16:41:00,16.7,-2.9,30.22,North,353,9.6,9.6,41,0.00,,---,0.00,VWS V14.01,2013-02-01 21:41:00,
2013-02-01 16:46:00,16.7,-2.3,30.22,North,353,9.6,9.6,42,0.00,,---,0.00,VWS V14.01,2013-02-01 21:46:00,
2013-02-01 16:51:00,16.5,-3.0,30.22,North,353,9.6,9.6,41,0.00,,---,0.00,VWS V14.01,2013-02-01 21:51:00,
2013-02-01 16:56:00,16.3,-3.2,30.22,North,353,9.6,9.6,41,0.00,,---,0.00,VWS V14.01,2013-02-01 21:56:00,
2013-02-01 17:01:00,16.3,-3.2,30.24,North,353,9.6,9.6,41,0.00,,---,0.00,VWS V14.01,2013-02-01 22:01:00,
2013-02-01 17:06:00,16.0,-3.0,30.24,North,353,9.6,9.6,42,0.00,,---,0.00,VWS V14.01,2013-02-01 22:06:00,
2013-02-01 17:11:00,16.0,-3.5,30.24,North,353,9.6,9.6,41,0.00,,---,0.00,VWS V14.01,2013-02-01 22:11:00,
2013-02-01 17:16:00,15.6,-3.3,30.22,North,353,9.6,9.6,42,0.00,,---,0.00,VWS V14.01,2013-02-01 22:16:00,
2013-02-01 17:21:00,15.4,-3.0,30.22,North,353,9.6,9.6,43,0.00,,---,0.00,VWS V14.01,2013-02-01 22:21:00,
2013-02-01 17:26:00,15.3,-3.1,30.22,North,353,9.6,9.6,43,0.00,,---,0.00,VWS V14.01,2013-02-01 22:26:00,
2013-02-01 17:31:00,15.1,-3.8,30.24,North,353,9.6,9.6,42,0.00,,---,0.00,VWS V14.01,2013-02-01 22:31:00,
2013-02-01 17:36:00,14.9,-3.5,30.24,North,353,9.6,9.6,43,0.00,,---,0.00,VWS V14.01,2013-02-01 22:36:00,
2013-02-01 17:41:00,14.5,-3.8,30.24,North,353,9.6,9.6,43,0.00,,---,0.00,VWS V14.01,2013-02-01 22:41:00,
2013-02-01 17:46:00,14.5,-3.3,30.24,North,353,9.6,9.6,44,0.00,,---,0.00,VWS V14.01,2013-02-01 22:46:00,
2013-02-01 17:51:00,14.4,-2.9,30.24,North,353,9.6,9.6,45,0.00,,---,0.00,VWS V14.01,2013-02-01 22:51:00,
2013-02-01 17:56:00,14.2,-3.1,30.24,North,353,9.6,9.6,45,0.00,,---,0.00,VWS V14.01,2013-02-01 22:56:00,
2013-02-01 18:01:00,14.2,-3.1,30.24,North,353,9.6,9.6,45,0.00,,---,0.00,VWS V14.01,2013-02-01 23:01:00,
2013-02-01 18:06:00,14.0,-2.3,30.24,North,353,9.6,9.6,48,0.00,,---,0.00,VWS V14.01,2013-02-01 23:06:00,
2013-02-01 18:11:00,14.0,-2.3,30.24,North,353,9.6,9.6,48,0.00,,---,0.00,VWS V14.01,2013-02-01 23:11:00,
2013-02-01 18:16:00,14.0,-1.8,30.24,North,353,9.6,9.6,49,0.00,,---,0.00,VWS V14.01,2013-02-01 23:16:00,
2013-02-01 18:21:00,13.8,-2.0,30.24,North,353,9.6,9.6,49,0.00,,---,0.00,VWS V14.01,2013-02-01 23:21:00,
2013-02-01 18:26:00,13.6,-2.1,30.24,North,353,9.6,9.6,49,0.00,,---,0.00,VWS V14.01,2013-02-01 23:26:00,
2013-02-01 18:31:00,13.5,-2.3,30.24,North,353,9.6,9.6,49,0.00,,---,0.00,VWS V14.01,2013-02-01 23:31:00,
2013-02-01 18:36:00,13.3,-2.5,30.24,North,353,9.6,9.6,49,0.00,,---,0.00,VWS V14.01,2013-02-01 23:36:00,
2013-02-01 18:41:00,13.1,-2.6,30.24,North,353,9.6,9.6,49,0.00,,---,0.00,VWS V14.01,2013-02-01 23:41:00,
2013-02-01 18:46:00,13.1,-2.6,30.24,North,353,9.6,9.6,49,0.00,,---,0.00,VWS V14.01,2013-02-01 23:46:00,
2013-02-01 18:51:00,13.1,-2.6,30.24,North,353,9.6,9.6,49,0.00,,---,0.00,VWS V14.01,2013-02-01 23:51:00,
2013-02-01 18:56:00,12.7,-3.0,30.24,North,353,9.6,9.6,49,0.00,,---,0.00,VWS V14.01,2013-02-01 23:56:00,
2013-02-01 19:01:00,12.6,-3.1,30.24,North,353,9.6,9.6,49,0.00,,---,0.00,VWS V14.01,2013-02-02 00:01:00,
2013-02-01 19:06:00,12.4,-3.3,30.24,North,353,9.6,9.6,49,0.00,,---,0.00,VWS V14.01,2013-02-02 00:06:00,
2013-02-01 19:11:00,12.4,-3.3,30.24,North,353,9.6,9.6,49,0.00,,---,0.00,VWS V14.01,2013-02-02 00:11:00,
2013-02-01 19:16:00,12.4,-3.3,30.24,North,353,9.6,9.6,49,0.00,,---,0.00,VWS V14.01,2013-02-02 00:16:00,
2013-02-01 19:22:00,12.4,-3.3,30.24,North,353,9.6,9.6,49,0.00,,---,0.00,VWS V14.01,2013-02-02 00:22:00,
2013-02-01 19:27:00,12.4,-3.3,30.24,North,353,9.6,9.6,49,0.00,,---,0.00,VWS V14.01,2013-02-02 00:27:00,
2013-02-01 19:32:00,12.4,-3.3,30.24,North,353,9.6,9.6,49,0.00,,---,0.00,VWS V14.01,2013-02-02 00:32:00,
2013-02-01 19:37:00,12.2,-3.5,30.24,North,353,9.6,9.6,49,0.00,,---,0.00,VWS V14.01,2013-02-02 00:37:00,
2013-02-01 19:42:00,12.2,-3.5,30.24,North,353,9.6,9.6,49,0.00,,---,0.00,VWS V14.01,2013-02-02 00:42:00,
2013-02-01 19:47:00,12.2,-3.5,30.24,North,353,9.6,9.6,49,0.00,,---,0.00,VWS V14.01,2013-02-02 00:47:00,
2013-02-01 19:52:00,12.0,-3.6,30.24,North,353,9.6,9.6,49,0.00,,---,0.00,VWS V14.01,2013-02-02 00:52:00,
2013-02-01 19:57:00,12.0,-3.6,30.24,North,353,9.6,9.6,49,0.00,,---,0.00,VWS V14.01,2013-02-02 00:57:00,
2013-02-01 20:02:00,12.0,-3.6,30.27,North,353,9.6,9.6,49,0.00,,---,0.00,VWS V14.01,2013-02-02 01:02:00,
2013-02-01 20:07:00,12.0,-3.6,30.27,North,353,9.6,9.6,49,0.00,,---,0.00,VWS V14.01,2013-02-02 01:07:00,
2013-02-01 20:12:00,12.2,-3.5,30.27,North,353,9.6,9.6,49,0.00,,---,0.00,VWS V14.01,2013-02-02 01:12:00,
2013-02-01 20:17:00,12.2,-3.5,30.24,North,353,9.6,9.6,49,0.00,,---,0.00,VWS V14.01,2013-02-02 01:17:00,
2013-02-01 20:22:00,12.2,-3.5,30.24,North,353,9.6,9.6,49,0.00,,---,0.00,VWS V14.01,2013-02-02 01:22:00,
2013-02-01 20:27:00,12.2,-3.5,30.24,North,353,9.6,9.6,49,0.00,,---,0.00,VWS V14.01,2013-02-02 01:27:00,
2013-02-01 20:32:00,12.0,-3.6,30.24,North,353,9.6,9.6,49,0.00,,---,0.00,VWS V14.01,2013-02-02 01:32:00,
2013-02-01 20:37:00,12.2,-3.5,30.24,North,353,9.6,9.6,49,0.00,,---,0.00,VWS V14.01,2013-02-02 01:37:00,
2013-02-01 20:42:00,12.2,-3.5,30.24,North,353,9.6,9.6,49,0.00,,---,0.00,VWS V14.01,2013-02-02 01:42:00,
2013-02-01 20:47:00,12.0,-3.6,30.24,North,353,9.6,9.6,49,0.00,,---,0.00,VWS V14.01,2013-02-02 01:47:00,
2013-02-01 20:52:00,12.2,-3.5,30.24,North,353,9.6,9.6,49,0.00,,---,0.00,VWS V14.01,2013-02-02 01:52:00,
2013-02-01 20:57:00,12.2,-3.5,30.24,North,353,9.6,9.6,49,0.00,,---,0.00,VWS V14.01,2013-02-02 01:57:00,
2013-02-01 21:02:00,12.2,-3.5,30.24,North,353,9.6,9.6,49,0.00,,---,0.00,VWS V14.01,2013-02-02 02:02:00,
2013-02-01 21:07:00,12.2,-3.5,30.24,North,353,9.6,9.6,49,0.00,,---,0.00,VWS V14.01,2013-02-02 02:07:00,
2013-02-01 21:12:00,12.2,-3.5,30.24,North,353,9.6,9.6,49,0.00,,---,0.00,VWS V14.01,2013-02-02 02:12:00,
2013-02-01 21:17:00,12.4,-3.3,30.24,North,353,9.6,9.6,49,0.00,,---,0.00,VWS V14.01,2013-02-02 02:17:00,
2013-02-01 21:22:00,12.4,-3.3,30.24,North,353,9.6,9.6,49,0.00,,---,0.00,VWS V14.01,2013-02-02 02:22:00,
2013-02-01 21:27:00,12.6,-3.1,30.24,North,353,9.6,9.6,49,0.00,,---,0.00,VWS V14.01,2013-02-02 02:27:00,
2013-02-01 21:32:00,12.6,-3.1,30.24,North,353,9.6,9.6,49,0.00,,---,0.00,VWS V14.01,2013-02-02 02:32:00,
2013-02-01 21:37:00,12.6,-3.1,30.24,North,353,9.6,9.6,49,0.00,,---,0.00,VWS V14.01,2013-02-02 02:37:00,
2013-02-01 21:42:00,12.6,-3.1,30.24,North,353,9.6,9.6,49,0.00,,---,0.00,VWS V14.01,2013-02-02 02:42:00,
2013-02-01 21:47:00,12.7,-3.0,30.24,North,353,9.6,9.6,49,0.00,,---,0.00,VWS V14.01,2013-02-02 02:47:00,
2013-02-01 21:52:00,12.7,-3.0,30.24,North,353,9.6,9.6,49,0.00,,---,0.00,VWS V14.01,2013-02-02 02:52:00,
2013-02-01 21:57:00,12.7,-3.0,30.24,North,353,9.6,9.6,49,0.00,,---,0.00,VWS V14.01,2013-02-02 02:57:00,
2013-02-01 22:02:00,12.7,-3.0,30.24,North,353,9.6,9.6,49,0.00,,---,0.00,VWS V14.01,2013-02-02 03:02:00,
2013-02-01 22:07:00,12.9,-2.8,30.24,North,353,9.6,9.6,49,0.00,,---,0.00,VWS V14.01,2013-02-02 03:07:00,
2013-02-01 22:12:00,12.9,-2.8,30.24,North,353,9.6,9.6,49,0.00,,---,0.00,VWS V14.01,2013-02-02 03:12:00,
2013-02-01 22:17:00,12.9,-2.8,30.24,North,353,9.6,9.6,49,0.00,,---,0.00,VWS V14.01,2013-02-02 03:17:00,
2013-02-01 22:22:00,12.9,-2.8,30.24,North,353,9.6,9.6,49,0.00,,---,0.00,VWS V14.01,2013-02-02 03:22:00,
2013-02-01 22:28:00,12.9,-2.8,30.24,North,353,9.6,9.6,49,0.00,,---,0.00,VWS V14.01,2013-02-02 03:28:00,
2013-02-01 22:33:00,12.9,-2.8,30.24,North,353,9.6,9.6,49,0.00,,---,0.00,VWS V14.01,2013-02-02 03:33:00,
2013-02-01 22:38:00,12.9,-2.8,30.24,North,353,9.6,9.6,49,0.00,,---,0.00,VWS V14.01,2013-02-02 03:38:00,
2013-02-01 22:43:00,12.9,-2.8,30.24,North,353,9.6,9.6,49,0.00,,---,0.00,VWS V14.01,2013-02-02 03:43:00,
2013-02-01 22:48:00,12.9,-2.8,30.24,North,353,9.6,9.6,49,0.00,,---,0.00,VWS V14.01,2013-02-02 03:48:00,
2013-02-01 22:53:00,13.1,-2.6,30.24,North,353,9.6,9.6,49,0.00,,---,0.00,VWS V14.01,2013-02-02 03:53:00,
2013-02-01 22:58:00,13.1,-2.6,30.24,North,353,9.6,9.6,49,0.00,,---,0.00,VWS V14.01,2013-02-02 03:58:00,
2013-02-01 23:03:00,13.1,-2.6,30.22,North,353,9.6,9.6,49,0.00,,---,0.00,VWS V14.01,2013-02-02 04:03:00,
2013-02-01 23:08:00,13.1,-2.6,30.22,North,353,9.6,9.6,49,0.00,,---,0.00,VWS V14.01,2013-02-02 04:08:00,
2013-02-01 23:13:00,13.1,-2.6,30.22,North,353,9.6,9.6,49,0.00,,---,0.00,VWS V14.01,2013-02-02 04:13:00,
2013-02-01 23:18:00,13.3,-2.5,30.22,North,353,9.6,9.6,49,0.00,,---,0.00,VWS V14.01,2013-02-02 04:18:00,
2013-02-01 23:23:00,13.3,-2.5,30.22,North,353,9.6,9.6,49,0.00,,---,0.00,VWS V14.01,2013-02-02 04:23:00,
2013-02-01 23:28:00,13.5,-2.3,30.22,North,353,9.6,9.6,49,0.00,,---,0.00,VWS V14.01,2013-02-02 04:28:00,
2013-02-01 23:33:00,13.5,-2.3,30.22,North,353,9.6,9.6,49,0.00,,---,0.00,VWS V14.01,2013-02-02 04:33:00,
2013-02-01 23:38:00,13.5,-2.3,30.22,North,353,9.6,9.6,49,0.00,,---,0.00,VWS V14.01,2013-02-02 04:38:00,
2013-02-01 23:43:00,13.6,-2.1,30.22,North,353,9.6,9.6,49,0.00,,---,0.00,VWS V14.01,2013-02-02 04:43:00,
2013-02-01 23:48:00,13.6,-2.1,30.22,North,353,9.6,9.6,49,0.00,,---,0.00,VWS V14.01,2013-02-02 04:48:00,
2013-02-01 23:53:00,13.6,-2.1,30.22,North,353,9.6,9.6,49,0.00,,---,0.00,VWS V14.01,2013-02-02 04:53:00,
2013-02-01 23:58:00,13.8,-2.0,30.22,North,353,9.6,9.6,49,0.00,,---,0.00,VWS V14.01,2013-02-02 04:58:00,